| time (UTC) | temp C | wind direction | speed KPH | gust KPH | rain 1hr cm | rain 24hr cm | rain mn cm | humidity % | barometer mb |
| 20260503004911 | 11 | 125 | 0.0 | 0.0 | 0.00 | 0.30 | 0.00 | 100 | |
| 20260503003326 | 12 | 125 | 0.0 | 0.0 | 0.00 | 0.33 | 0.00 | 100 | |
| 20260503001742 | 12 | 125 | 0.0 | 0.0 | 0.00 | 0.33 | 0.00 | 100 | |
| 20260503000157 | 12 | 125 | 0.0 | 0.0 | 0.00 | 0.33 | 0.00 | 100 | |
| 20260502234613 | 12 | 125 | 0.0 | 0.0 | 0.00 | 0.33 | 0.00 | 100 | |
| 20260502233029 | 12 | 125 | 0.0 | 0.0 | 0.00 | 0.33 | 0.00 | 100 | |
| 20260502231444 | 13 | 125 | 0.0 | 0.0 | 0.00 | 0.36 | 0.00 | 100 | |
| 20260502225900 | 13 | 125 | 0.0 | 0.0 | 0.00 | 0.36 | 0.00 | 100 | |
| 20260502224316 | 15 | 125 | 0.0 | 0.0 | 0.00 | 0.38 | 0.00 | 100 | |
| 20260502222732 | 15 | 125 | 0.0 | 0.0 | 0.00 | 0.38 | 0.00 | 100 | |
| 20260502221148 | 15 | 125 | 0.0 | 0.0 | 0.00 | 0.38 | 0.00 | 100 | |
| 20260502215604 | 15 | 125 | 0.0 | 0.0 | 0.00 | 0.38 | 0.00 | 100 | |
| 20260502214020 | 15 | 125 | 0.0 | 0.0 | 0.00 | 0.38 | 0.00 | 100 | |
| 20260502212435 | 15 | 126 | 0.0 | 0.0 | 0.00 | 0.38 | 0.00 | 100 | |
| 20260502210852 | 15 | 126 | 0.0 | 0.0 | 0.00 | 0.38 | 0.00 | 100 | |
| 20260502203724 | 15 | 126 | 0.0 | 0.0 | 0.00 | 0.41 | 0.00 | 100 | |
| 20260502202140 | 15 | 126 | 0.0 | 0.0 | 0.00 | 0.41 | 0.00 | 100 | |
| 20260502200556 | 16 | 126 | 0.0 | 0.0 | 0.00 | 0.43 | 0.00 | 100 | |
| 20260502195013 | 16 | 126 | 0.0 | 0.0 | 0.00 | 0.43 | 0.00 | 100 | |
| 20260502193429 | 17 | 126 | 0.0 | 0.0 | 0.00 | 0.46 | 0.00 | 100 | |
| 20260502191846 | 17 | 127 | 0.0 | 0.0 | 0.00 | 0.46 | 0.00 | 100 | |
| 20260502190302 | 18 | 127 | 0.0 | 0.0 | 0.00 | 0.48 | 0.00 | 100 | |
| 20260502184719 | 20 | 127 | 0.0 | 0.0 | 0.00 | 0.51 | 0.00 | 100 | |
| 20260502183136 | 20 | 127 | 0.0 | 0.0 | 0.00 | 0.53 | 0.00 | 100 | |
| 20260502181553 | 21 | 127 | 0.0 | 0.0 | 0.00 | 0.56 | 0.00 | 100 | |
| 20260502164139 | 28 | 132 | 0.0 | 0.0 | 0.00 | 0.74 | 0.00 | 100 | |
| 20260502162557 | 30 | 132 | 0.0 | 0.0 | 0.00 | 0.79 | 0.00 | 100 | |
| 20260502152311 | 32 | 130 | 0.0 | 0.0 | 0.00 | 0.84 | 0.00 | 100 | |
| 20260502150729 | 33 | 129 | 0.0 | 0.0 | 0.00 | 0.86 | 0.00 | 100 | |
| 20260502112748 | 32 | 127 | 0.0 | 0.0 | 0.00 | 0.84 | 0.00 | 100 | |
| 20260502111206 | 30 | 127 | 0.0 | 0.0 | 0.00 | 0.79 | 0.00 | 100 | |
| 20260502104043 | 28 | 128 | 0.0 | 0.0 | 0.00 | 0.74 | 0.00 | 100 | |
| 20260502102501 | 28 | 128 | 0.0 | 0.0 | 0.00 | 0.74 | 0.00 | 100 | |
| 20260502100919 | 30 | 128 | 0.0 | 0.0 | 0.00 | 0.76 | 0.00 | 100 | |
| 20260502090632 | 25 | 130 | 0.0 | 0.0 | 0.00 | 0.64 | 0.00 | 100 | |
| 20260502070100 | 15 | 142 | 0.0 | 0.0 | 0.00 | 0.38 | 0.00 | 100 | |
| 20260502064518 | 13 | 143 | 0.0 | 0.0 | 0.00 | 0.36 | 0.00 | 100 | |
| 20260502061353 | 10 | 144 | 0.0 | 0.0 | 0.00 | 0.28 | 0.00 | 100 | |
| 20260502055810 | 10 | 144 | 0.0 | 0.0 | 0.00 | 0.25 | 0.00 | 100 | |
| 20260502054225 | 8 | 140 | 0.0 | 0.0 | 0.00 | 0.23 | 0.00 | 100 | |
| 20260502052641 | 7 | 138 | 0.0 | 0.0 | 0.00 | 0.20 | 0.00 | 100 | |
| 20260502051056 | 6 | 135 | 0.0 | 0.0 | 0.00 | 0.18 | 0.00 | 100 | |
| 20260502045511 | 6 | 132 | 0.0 | 0.0 | 0.00 | 0.18 | 0.00 | 100 | |
| 20260502042340 | 5 | 125 | 0.0 | 0.0 | 0.00 | 0.15 | 0.00 | 100 | |
| 20260502040754 | 5 | 124 | 0.0 | 0.0 | 0.00 | 0.15 | 0.00 | 100 | |
| 20260502035209 | 5 | 124 | 0.0 | 0.0 | 0.00 | 0.15 | 0.00 | 100 | |
| 20260502033623 | 5 | 124 | 0.0 | 0.0 | 0.00 | 0.15 | 0.00 | 100 | |
| 20260502032037 | 5 | 124 | 0.0 | 0.0 | 0.00 | 0.15 | 0.00 | 100 | |
| 20260502030452 | 5 | 124 | 0.0 | 0.0 | 0.00 | 0.15 | 0.00 | 100 | |
| 20260502024906 | 5 | 124 | 0.0 | 0.0 | 0.00 | 0.15 | 0.00 | 100 | |
| 20260502023321 | 6 | 124 | 0.0 | 0.0 | 0.00 | 0.18 | 0.00 | 100 | |
| 20260502021735 | 6 | 124 | 0.0 | 0.0 | 0.00 | 0.18 | 0.00 | 100 | |
| 20260502020150 | 6 | 125 | 0.0 | 0.0 | 0.00 | 0.18 | 0.00 | 100 | |
| 20260502013019 | 6 | 125 | 0.0 | 0.0 | 0.00 | 0.18 | 0.00 | 100 | |
| 20260502011433 | 6 | 125 | 0.0 | 0.0 | 0.00 | 0.18 | 0.00 | 100 | |
| 20260502005848 | 6 | 125 | 0.0 | 0.0 | 0.00 | 0.18 | 0.00 | 100 |